Location: Crescent
(42.8242°N, 73.7329°W)
Time: 01:21:40
(UTC+00:00)

Explorer 7 - Pass Details

Date: 25 February 2026
Orbit: 430 x 541 km, 50.2° (Epoch: 10 March)

Event Time Altitude Azimuth Distance (km) Brightness Sun altitude
Rises 18:09:14 0° 262° (W) 2,396 10.4 36.4°
Reaches altitude 10° 18:11:25 10° 270° (W) 1,538 9.4 36.3°
Maximum altitude 18:14:40 38° 341° (NNW) 692 7.3 36.1°
Drops below altitude 10° 18:18:01 10° 51° (NE) 1,580 8.8 35.9°
Sets 18:20:17 0° 59° (ENE) 2,472 9.8 35.7°
